Preview of NWS' New Version of Forecast
This preview is not operational and should not be used for support decisions.

Regional Weather Roundup (RWR)

Issued by National Weather Service (NWS)

                            
000
ASUS42 KTBW 211116
RWRFL 
FLORIDA REGIONAL WEATHER ROUNDUP
NATIONAL WEATHER SERVICE TAMPA BAY RUSKIN FL
700 AM EDT TUE MAY 21 2019

NOTE: "FAIR" INDICATES FEW OR NO CLOUDS BELOW 12,000 FEET WITH NO
SIGNIFICANT WEATHER AND/OR OBSTRUCTIONS TO VISIBILITY.

FLZ001>010-012>015-112-114-115-211200-
PANHANDLE FLORIDA
  
CITY           SKY/WX    TMP DP  RH WIND       PRES   REMARKS
PENSACOLA      FAIR      73  73 100 CALM      29.92R                  
PENSACOLA NAS  MOCLDY    71  71 100 CALM      29.92R                  
MILTON NAS     FOG       67  67 100 CALM      29.93R VSB 1/4          
CRESTVIEW      FOG       68  66  93 CALM      29.95R VSB 1/4          
DUKE FIELD     FOG       66  66 100 CALM      29.93R VSB 1/4          
VALPARAISO     FAIR      68  68 100 CALM      29.93R                  
MARY ESTHER    PTCLDY    68  66  94 CALM      29.91S                  
PANAMA CITY    FOG       66  64  93 CALM      29.93S VSB 1/2          
TYNDALL AFB    FOG       68  66  94 CALM      29.94R VSB 1            
APALACHICOLA   FAIR      65  61  87 CALM      29.94R                  

STATION/POSITION SKY/WX   TEMP    WIND        PRES    WAVE   SWELL
                          AIR SEA DIR/SP/G            HT/PER HT/PER
                          (F)     (DEG/KT/KT) (MB)    (FT/S) (FT/S)
30.1N   87.6W                                   N/A     2/ 6
29.2N   88.2W                     160/  8/ 12 1013.0R   2/ 5   2/ 5
PANAMA CITY BEAC           73 80   50/  4/  5 1014.0R
TOWER C          NOT AVBL

$$
FLZ011-016>038-118-127-128-134-139-239-211200-
NORTH FLORIDA
  
CITY           SKY/WX    TMP DP  RH WIND       PRES   REMARKS
MARIANNA       FAIR      67  67 100 S3        29.94R                  
TALLAHASSEE    FAIR      65  63  93 CALM      29.94R                  
PERRY          FAIR      65  63  94 CALM      29.97R                  
LIVE OAK       CLEAR     64  63  94 CALM      29.96R                  
CROSS CITY     FAIR      63  60  90 CALM      29.96S                  
GAINESVILLE    CLOUDY    76  70  82 S3        29.99R                  
WILLISTON      FAIR      69  67  93 CALM      29.97R                  
PALATKA        CLOUDY   N/A N/A N/A CALM      29.97R                  
MAYPORT NAS    FAIR      71  70  96 S7        29.96R                  
JACKSONVILLE   FAIR      71  69  93 S3        29.95R                  
JAX NAS        FAIR      76  68  76 SW7       29.96S                  
JAX CECIL      CLEAR     66  66 100 CALM      29.96R                  
FERNANDINA BEA FAIR      73  71  95 SW6       29.95S                  
ST AUGUSTINE   FAIR      72  70  93 S6        29.98R                  
PALM COAST     CLEAR     70  68  94 CALM      29.97R                  

STATION/POSITION SKY/WX   TEMP    WIND        PRES    WAVE   SWELL
                          AIR SEA DIR/SP/G            HT/PER HT/PER
                          (F)     (DEG/KT/KT) (MB)    (FT/S) (FT/S)
SHELL POINT      NOT AVBL
KEATON BEACH               70      50/  4/  4 1014.6R
CEDAR KEY                  80     200/  7/  8 1014.4R
FERNANDINA                 76 81  170/  3/  5 1014.9R
30.7N   81.3W                 79                N/A     3/ 4
MAYPORT                    73 81  210/  4/  6 1014.6R
31.4N   80.9W              77 77  200/ 12/ 14 1014.2R   3/ 4   2/ 6
ST AUGUSTINE               73 80  210/  6/  6 1015.0R

$$
FLZ040-043>046-052-053-057-058-063-144-211200-
INTERIOR CENTRAL FLORIDA
  
CITY           SKY/WX    TMP DP  RH WIND       PRES   REMARKS
OCALA          MOCLDY    72  70  93 CALM      29.97R                  
LEESBURG       FAIR      74  70  87 S7        29.97R                  
SANFORD        FAIR      73  70  90 S5        29.97R                  
ORLANDO EXEC   FAIR      73  69  87 S3        29.97R                  
ORLANDO INTL   FAIR      71  68  90 CALM      29.97R                  
KISSIMMEE      FAIR      72  70  93 CALM      29.98R                  
WINTER HAVEN   FAIR      74  71  91 E3        29.97S                  
LAKELAND       CLEAR     72  68  88 CALM      29.97R                  
BARTOW         FAIR      70  68  94 E3        29.96R                  
SEBRING        CLOUDY    67  66  99 NE3       29.97R FOG              
OKEECHOBEE     FAIR      68  66  94 CALM      29.96R FOG              

$$
FLZ041-047-054-059-064-141-147-211200-
EAST CENTRAL FLORIDA
  
CITY           SKY/WX    TMP DP  RH WIND       PRES   REMARKS
ORMOND BEACH   CLEAR     72  72 100 CALM      29.97  FOG              
DAYTONA BEACH  FAIR      71  71 100 S5        29.97R                  
DELAND         FAIR      70  68  94 CALM      29.97R                  
NEW SMYRNA BEA CLEAR     70  68  94 CALM      29.98                   
JFK SPACE CTR  FAIR      67  65  95 SW3       29.96S                  
TITUSVILLE     CLEAR    N/A N/A N/A CALM      29.98                   
CAPE CANAVERAL FAIR      71  61  71 SW3       29.96R                  
PATRICK AFB    FAIR      74  73  95 S5        29.97R                  
MELBOURNE      FAIR      71  68  90 CALM      29.97R                  
VERO BEACH     FAIR      69  66  90 CALM      29.96R                  
FT PIERCE      FAIR      67  64  90 NW3       29.96R                  
STUART         PTCLDY    72  66  83 CALM      29.97S                  

STATION/POSITION SKY/WX   TEMP    WIND        PRES    WAVE   SWELL
                          AIR SEA DIR/SP/G            HT/PER HT/PER
                          (F)     (DEG/KT/KT) (MB)    (FT/S) (FT/S)
28.5N   80.2W              78     200/  8/ 10 1015.3
28.9N   78.5W              77 78  150/  4/  6 1015.6R   2/ 7   2/ 7
TRIDENT PIER               76 82  190/  4/  5 1016.1R
28.4N   80.5W                 79                N/A     2/ 3
27.5N   80.2W                 80                N/A     2/ 7

$$
FLZ050-056-061-142-242-148-248-149-249-151-251-155-255-
160-260-211200-
WEST CENTRAL FLORIDA
  
CITY           SKY/WX    TMP DP  RH WIND       PRES   REMARKS
CRYSTAL RIVER  FAIR      68  68 100 CALM      29.97R                  
INVERNESS      FAIR      70  70 100 CALM      29.97R                  
BROOKSVILLE    FAIR      69  67  93 CALM      29.97R                  
CLEARWATER AIR FAIR      75  70  83 SE5       29.95R                  
ST PETE CLEARW FAIR      75  71  87 SE6       29.95R                  
TAMPA INTL     FAIR      76  69  79 E5        29.96R                  
TAMPA EXEC     FOG       68  66  94 CALM      29.96S VSB 1/2          
PLANT CITY     FAIR      72  72 100 E3        29.98S                  
MACDILL AFB    FAIR      74  69  87 SE6       29.95R                  
PETER O KNIGHT CLOUDY   N/A N/A N/A E3        29.96S                  
ST PETERSBURG  FAIR      77  73  87 SE13      29.94                   
SARASOTA       FAIR      73  69  87 E6        29.93R                  
VENICE         FAIR      73  72  94 E6        29.95R                  

STATION/POSITION SKY/WX   TEMP    WIND        PRES    WAVE   SWELL
                          AIR SEA DIR/SP/G            HT/PER HT/PER
                          (F)     (DEG/KT/KT) (MB)    (FT/S) (FT/S)
27.3N   84.2W                 78                N/A     1/ 6
CLEARWATER BEACH           77 84  110/  6/  9 1014.2R
MIDDLE TAMPA BAY           74     140/  9/ 10 1014.0R
VENICE                     73 82   70/  6/  8 1013.9R

$$
FLZ066-069-070-075>078-162-262-165-265-211200-
SOUTHWEST FLORIDA AND KEYS
  
CITY           SKY/WX    TMP DP  RH WIND       PRES   REMARKS
PUNTA GORDA    FAIR      70  68  93 E5        29.96R                  
FT MYERS       FAIR      73  70  90 E5        29.93R                  
SOUTHWEST INTL FAIR      71  68  90 E3        29.94R                  
NAPLES         CLOUDY    74  71  91 E5        29.93R                  
MARCO ISLAND   CLOUDY    74  71  91 MISG      29.94S                  
IMMOKALEE      FAIR      68  68 100 CALM      29.93R                  
MARATHON       FAIR      82  71  69 E6        29.92R                  
KEY WEST NAS   FAIR      80  69  69 SE6       29.92R                  
KEY WEST INTL  FAIR      80  69  69 SE6       29.93R                  

STATION/POSITION SKY/WX   TEMP    WIND        PRES    WAVE   SWELL
                          AIR SEA DIR/SP/G            HT/PER HT/PER
                          (F)     (DEG/KT/KT) (MB)    (FT/S) (FT/S)
NAPLES                     76 84              1013.6R
DRY TORTUGAS               80     120/  3/  4 1013.3R
SAND KEY                   80                 1013.2R
SOMBRERO KEY               80                 1012.6R

$$
FLZ067-068-071>074-168-172>174-211200-
SOUTHEAST FLORIDA 
  
CITY           SKY/WX    TMP DP  RH WIND       PRES   REMARKS
W PALM BEACH   FAIR      74  67  78 CALM      29.96R                  
BOCA RATON     PTCLDY    75  70  83 CALM      29.94                   
FT LAUDER-EXEC FAIR      78  70  76 CALM      29.94R                  
FT LAUDERDALE  FAIR      79  69  71 CALM      29.93R                  
POMPANO BEACH  FAIR      79  68  69 SE3       29.94R                  
PEMBROKE PINES FAIR      74  69  85 CALM      29.95R                  
OPA LOCKA      FAIR      73  70  90 CALM      29.95R                  
MIAMI          FAIR      79  68  69 SE5       29.94R                  
WEST KENDALL   FAIR      72  70  93 CALM      29.94R                  
HOMESTEAD      FAIR      76  71  85 CALM      29.93R                  

STATION/POSITION SKY/WX   TEMP    WIND        PRES    WAVE   SWELL
                          AIR SEA DIR/SP/G            HT/PER HT/PER
                          (F)     (DEG/KT/KT) (MB)    (FT/S) (FT/S)
PORT EVERGLADES            80     150/  6/  9 1013.6R
VIRGINIA KEY               80 84  120/  6/  8 1013.2R
LAKE WORTH                 79 81              1015.1R
SETTLEMENT POINT           78     110/  4/  4 1014.6R

$$